N0ZRD-10 Weather Reports


time (UTC)temp
F
wind
direction
speed
knots
gust
knots
rain 1hr
in
rain 24hr
in
rain mn
in
humidity
%
barometer
mb
20260504012340 60 180 2.6 3.5 0.00 0.00 0.00 24
20260504011339 61 180 3.5 4.3 0.00 0.00 0.00 22
20260504003333 64 180 6.1 7.8 0.00 0.00 0.00 19
20260504002332 65 180 4.3 7.8 0.00 0.00 0.00 21
20260504001331 64 180 3.5 7.8 0.00 0.00 0.00 17
20260504000330 64 180 3.5 7.8 0.00 0.00 0.00 20
20260503235329 64 180 1.7 7.8 0.00 0.00 0.00 19
20260503234328 65 180 5.2 8.7 0.00 0.00 0.00 18
20260503233327 63 180 2.6 8.7 0.00 0.00 0.00 18
20260503232326 64 180 7.0 11.3 0.00 0.00 0.00 17
20260503231325 64 180 3.5 5.2 0.00 0.00 0.00 18
20260503230324 64 180 6.1 8.7 0.00 0.00 0.00 20
20260503225323 64 180 5.2 12.2 0.00 0.00 0.00 17
20260503224322 63 180 9.6 14.8 0.00 0.00 0.00 16
20260503223320 63 180 7.0 13.9 0.00 0.00 0.00 17
20260503220317 63 180 5.2 15.6 0.00 0.00 0.00 21
20260503215316 63 180 4.3 11.3 0.00 0.00 0.00 20
20260503214315 62 180 7.8 13.9 0.00 0.00 0.00 16
20260503213314 63 180 9.6 9.6 0.00 0.00 0.00 17
20260503212313 63 180 7.0 13.0 0.00 0.00 0.00 21
20260503211312 62 180 6.1 11.3 0.00 0.00 0.00 18
20260503203308 62 180 6.1 8.7 0.00 0.00 0.00 19
20260503201305 61 180 10.4 13.9 0.00 0.00 0.00 18
20260503200305 61 180 7.0 13.0 0.00 0.00 0.00 18
20260503195305 60 180 9.6 14.8 0.00 0.00 0.00 18
20260503193302 60 180 6.1 19.1 0.00 0.00 0.00 20
20260503192301 60 180 8.7 13.9 0.00 0.00 0.00 18
20260503190259 60 180 4.3 10.4 0.00 0.00 0.00 21
20260503185258 60 180 2.6 11.3 0.00 0.00 0.00 20
20260503183256 60 180 4.3 8.7 0.00 0.00 0.00 17
20260503182255 59 180 6.1 13.9 0.00 0.00 0.00 16
20260503181254 59 180 3.5 12.2 0.00 0.00 0.00 15
20260503180253 59 180 9.6 14.8 0.00 0.00 0.00 15
20260503175252 59 180 9.6 11.3 0.00 0.00 0.00 14
20260503174251 59 180 7.0 13.9 0.00 0.00 0.00 13
20260503173250 58 180 8.7 13.0 0.00 0.00 0.00 15
20260503172249 57 180 3.5 13.0 0.00 0.00 0.00 11
20260503170245 57 180 9.6 16.5 0.00 0.00 0.00 10
20260503150232 54 180 7.0 9.6 0.00 0.00 0.00 41
20260503140226 53 180 7.0 8.7 0.00 0.00 0.00 49
20260503130216 49 180 2.6 4.3 0.00 0.00 0.00 62
20260503120208 44 180 2.6 4.3 0.00 0.00 0.00 74
20260503110201 40 180 0.0 0.0 0.00 0.00 0.00 81
20260503090150 41 180 0.0 0.0 0.00 0.00 0.00 75
20260503081144 44 180 0.0 0.0 0.00 0.00 0.00 73
20260503080144 45 180 0.0 0.0 0.00 0.00 0.00 73
20260503072140 46 180 0.0 0.0 0.00 0.00 0.00 69
20260503071138 46 180 0.0 0.0 0.00 0.00 0.00 69
20260503070137 47 180 0.0 0.0 0.00 0.00 0.00 68
20260503060133 49 180 0.0 0.0 0.00 0.00 0.00 68
20260503053129 50 180 0.0 0.0 0.00 0.00 0.00 67
20260503052127 50 180 0.0 0.0 0.00 0.00 0.00 66
20260503051127 50 180 0.0 0.0 0.00 0.00 0.00 66
20260503043119 51 180 0.0 7.0 0.00 0.00 0.00 63
20260503042119 51 180 0.0 3.5 0.00 0.00 0.00 68
20260503041117 51 180 0.0 0.0 0.00 0.00 0.00 66
20260503040117 51 180 0.0 0.0 0.00 0.00 0.00 65
20260503035115 51 180 0.0 0.0 0.00 0.00 0.00 64
20260503034114 51 180 0.0 0.0 0.00 0.00 0.00 63
20260503032113 52 180 0.0 0.0 0.00 0.00 0.00 68
20260503031112 52 180 0.0 0.0 0.00 0.00 0.00 62
20260503025110 54 180 0.0 0.0 0.00 0.00 0.00 58
20260503024109 55 180 0.0 1.7 0.00 0.00 0.00 50
20260503023108 56 180 2.6 7.0 0.00 0.00 0.00 46
20260503022107 57 180 5.2 10.4 0.00 0.00 0.00 44
20260503021104 57 180 4.3 7.8 0.00 0.00 0.00 42
20260503015101 58 180 0.0 10.4 0.00 0.00 0.00 37
20260503014101 58 180 8.7 7.8 0.00 0.00 0.00 34
20260503013059 58 180 5.2 8.7 0.00 0.00 0.00 33